Tracking 31027 objects as of 19-Jul-2025
HD Live streaming from Space Station
objects crossing your sky now

COSMOS 1524

Track COSMOS 1524 now!
10-day predictions
COSMOS 1524 is classified as:


NORAD ID: 14613
Int'l Code: 1984-001C
Perigee: 1,419.1 km
Apogee: 1,468.0 km
Inclination: 74.0 °
Period: 114.6 minutes
Semi major axis: 7814 km
RCS: 0.6947 m2 (medium)
Launch date: January 5, 1984
Source: Commonwealth of Independent States (former USSR) (CIS)
Launch site: PLESETSK MISSILE AND SPACE COMPLEX (PKMTR)
Your satellite tracking list
XMM
Track 1 satellite(s)




NASA's NSSDC Master Catalog

Two Line Element Set (TLE):
1 14613U 84001C   25199.62313973 -.00000007  00000-0  53057-4 0  9990
2 14613  74.0082 139.2979 0031316  92.0593  82.2032 12.56740344905399
Source of the keplerian elements: AFSPC